Location: Gleizolles
(44.4833°N, 6.7667°E)
Time: 21:56:43
(UTC+00:00)

A-11 Canister half - Pass Details

Date: 26 June 2024
Orbit: 1524 x 1684 km, 47.3° (Epoch: 18 July)

Event Time Altitude Azimuth Distance (km) Brightness Sun altitude
Rises 10:06:24 0° 210° (SSW) 4,792 11.7 62.0°
Reaches altitude 10° 10:09:46 10° 203° (SSW) 3,786 11.3 62.5°
Maximum altitude 10:18:26 41° 138° (SE) 2,138 11.3 63.6°
Drops below altitude 10° 10:26:54 10° 73° (ENE) 3,706 11.3 64.6°
Sets 10:30:08 0° 66° (ENE) 4,682 11.6 64.9°
